Location: Newark
(0.5300°S, 127.4800°E)
Time: 07:56:47
(UTC+00:00)

A-11 Canister half - Pass Details

Date: 21 September 2019
Orbit: 1514 x 1686 km, 47.2° (Epoch: 18 October)

Event Time Altitude Azimuth Distance (km) Brightness Sun altitude
Rises 00:38:43 0° 264° (W) 4,782 11.2 48.8°
Reaches altitude 10° 00:44:21 10° 289° (WNW) 3,753 10.8 50.2°
Maximum altitude 00:48:11 13° 314° (NW) 3,492 10.8 51.2°
Drops below altitude 10° 00:52:00 10° 339° (NNW) 3,701 11.0 52.1°
Sets 00:57:32 0° 5° (N) 4,655 11.6 53.5°
